sat.trackr.live / text

‹ back to catalog

QIANFAN-94

NORAD 66036 · 2025-233D

PAYLOAD ACTIVE UNKNOWN

§ Identity

Operator
Country
PRC
Launch date
2025-10-17
Launch site
TAISC
Launch vehicle
Mass (kg)
RCS (m²)

External: N2YO · Heavens-Above · Gunter

§ Orbital elements

Epoch: 2026-09-20T14:29:13.764192Z

Period
106.59 min
Inclination
89.0062°
Eccentricity
0.0001767
Mean motion
13.51027990 rev/d
Perigee alt
1,067.2 km
Apogee alt
1,069.8 km
Semi-major
7,446.6 km
B*
1.0010e-4
RAAN
33.4777°
Arg perigee
100.3173°
Mean anomaly
259.8178°
Rev number
4,611

§ Raw data

QIANFAN-941 66036U 25233D   26263.60363153  .00000077  00000+0  10010-3 0  99902 66036  89.0062  33.4777 0001767 100.3173 259.8178 13.51027990 46114

JSON: /api/v1/satellites/66036 · /tle

For live sub-satellite position, see the globe view (requires WebGL).

§ Visibility from observer

Set your observer location to see the next 7 days of passes ≥ 10°. The values pass through the URL so the page stays shareable.

No JS? Fill the form by hand. The geolocation button needs JavaScript.